• In Romania
  • List of Countries
  • For 7 days
  • Water Temperature
  • Satellite Maps
  • Weather Map
  • Weather Widgets
  • user-avatar
    Login

    Hourly Weather Djelfa

    Today, 22 February, Wednesday

    Time Temperature Precipitation Wind Pressure Humidity
    00:00 +9°C° 0 mm 3 mps 667 mmHg 60%
    01:00 +9°C° 0.2 mm 3 mps 667 mmHg 60%
    02:00 +9°C° 0.2 mm 3 mps 667 mmHg 60%
    03:00 +9°C° 0.2 mm 2 mps 667 mmHg 60%
    04:00 +9°C° 0.2 mm 2 mps 667 mmHg 60%
    05:00 +9°C° 0.2 mm 2 mps 667 mmHg 60%
    06:00 +9°C° 0 mm 2 mps 667 mmHg 61%
    07:00 +10°C° 0 mm 3 mps 667 mmHg 57%
    08:00 +11°C° 0 mm 3 mps 668 mmHg 54%
    09:00 +12°C° 0 mm 4 mps 668 mmHg 50%
    10:00 +14°C° 0 mm 4 mps 668 mmHg 46%
    11:00 +15°C° 0 mm 4 mps 668 mmHg 42%
    12:00 +17°C° 0 mm 5 mps 668 mmHg 37%
    13:00 +17°C° 0.2 mm 5 mps 668 mmHg 37%
    14:00 +18°C° 0.2 mm 4 mps 668 mmHg 36%
    15:00 +19°C° 0.2 mm 4 mps 668 mmHg 35%
    16:00 +17°C° 0.1 mm 4 mps 667 mmHg 41%
    17:00 +15°C° 0.1 mm 4 mps 667 mmHg 46%
    18:00 +14°C° 0.1 mm 5 mps 666 mmHg 51%
    19:00 +13°C° 0.1 mm 5 mps 667 mmHg 53%
    20:00 +13°C° 0.1 mm 5 mps 667 mmHg 55%
    21:00 +13°C° 0.1 mm 5 mps 667 mmHg 57%
    22:00 +12°C° 0.2 mm 5 mps 667 mmHg 59%
    23:00 +12°C° 0.2 mm 5 mps 667 mmHg 60%

    Tomorrow, 23 February, Thursday

    Time Temperature Precipitation Wind Pressure Humidity
    00:00 +10°C° 0.2 mm 5 mps 666 mmHg 62%
    01:00 +10°C° 0.2 mm 5 mps 666 mmHg 63%
    02:00 +9°C° 0.2 mm 5 mps 665 mmHg 64%
    03:00 +9°C° 0.2 mm 5 mps 665 mmHg 65%
    04:00 +9°C° 0.1 mm 5 mps 665 mmHg 64%
    05:00 +9°C° 0.1 mm 5 mps 664 mmHg 64%
    06:00 +9°C° 0.1 mm 6 mps 664 mmHg 63%
    07:00 +10°C° 0.1 mm 6 mps 664 mmHg 59%
    08:00 +11°C° 0.1 mm 7 mps 665 mmHg 55%
    09:00 +12°C° 0.1 mm 7 mps 665 mmHg 51%
    10:00 +13°C° 0 mm 9 mps 665 mmHg 47%
    11:00 +16°C° 0 mm 10 mps 665 mmHg 43%
    12:00 +17°C° 0 mm 11 mps 665 mmHg 39%
    13:00 +17°C° 0.1 mm 11 mps 664 mmHg 39%
    14:00 +17°C° 0.1 mm 11 mps 663 mmHg 38%
    15:00 +17°C° 0.1 mm 10 mps 662 mmHg 38%
    16:00 +16°C° 0.2 mm 9 mps 662 mmHg 41%
    17:00 +15°C° 0.2 mm 8 mps 661 mmHg 43%
    18:00 +14°C° 0.2 mm 6 mps 661 mmHg 46%
    19:00 +13°C° 0.1 mm 6 mps 661 mmHg 46%
    20:00 +11°C° 0.1 mm 6 mps 661 mmHg 47%
    21:00 +11°C° 0.1 mm 7 mps 661 mmHg 48%
    22:00 +10°C° 0 mm 5 mps 660 mmHg 49%
    23:00 +10°C° 0 mm 4 mps 660 mmHg 51%

    Day after tomorrow, 24 February, Friday

    Time Temperature Precipitation Wind Pressure Humidity
    00:00 +9°C° 0 mm 2 mps 660 mmHg 53%
    01:00 +9°C° 0 mm 2 mps 660 mmHg 55%
    02:00 +8°C° 0 mm 2 mps 660 mmHg 58%
    03:00 +8°C° 0 mm 3 mps 659 mmHg 60%
    04:00 +7°C° 0 mm 3 mps 659 mmHg 67%
    05:00 +7°C° 0 mm 3 mps 660 mmHg 74%
    06:00 +5°C° 0 mm 3 mps 660 mmHg 81%
    07:00 +8°C° 0 mm 3 mps 660 mmHg 74%
    08:00 +8°C° 0 mm 4 mps 661 mmHg 67%
    09:00 +10°C° 0 mm 5 mps 662 mmHg 60%
    10:00 +12°C° 0 mm 5 mps 662 mmHg 54%
    11:00 +13°C° 0 mm 6 mps 662 mmHg 48%
    12:00 +15°C° 0 mm 6 mps 662 mmHg 42%
    13:00 +15°C° 0 mm 6 mps 662 mmHg 40%
    14:00 +15°C° 0 mm 6 mps 662 mmHg 39%
    15:00 +15°C° 0 mm 6 mps 661 mmHg 38%
    16:00 +14°C° 0 mm 5 mps 661 mmHg 43%
    17:00 +13°C° 0 mm 4 mps 662 mmHg 48%
    18:00 +12°C° 0 mm 4 mps 662 mmHg 54%
    19:00 +11°C° 0 mm 4 mps 662 mmHg 60%
    20:00 +10°C° 0 mm 4 mps 663 mmHg 66%
    21:00 +8°C° 0 mm 5 mps 663 mmHg 72%
    22:00 +8°C° 0 mm 4 mps 663 mmHg 78%
    23:00 +7°C° 0 mm 4 mps 663 mmHg 83%

    25 February, Saturday

    Time Temperature Precipitation Wind Pressure Humidity
    00:00 +7°C° 0 mm 4 mps 663 mmHg 88%
    01:00 +6°C° 0 mm 4 mps 663 mmHg 89%
    02:00 +6°C° 0 mm 4 mps 663 mmHg 91%
    03:00 +5°C° 0 mm 5 mps 662 mmHg 92%
    04:00 +5°C° 0 mm 5 mps 663 mmHg 92%
    05:00 +5°C° 0 mm 5 mps 663 mmHg 93%
    06:00 +5°C° 0 mm 5 mps 663 mmHg 93%
    07:00 +6°C° 0 mm 5 mps 664 mmHg 87%
    08:00 +7°C° 0 mm 5 mps 664 mmHg 82%
    09:00 +7°C° 0 mm 5 mps 664 mmHg 76%
    10:00 +9°C° 0 mm 5 mps 665 mmHg 69%
    11:00 +10°C° 0 mm 5 mps 665 mmHg 62%
    12:00 +13°C° 0 mm 6 mps 665 mmHg 54%
    13:00 +13°C° 0 mm 6 mps 665 mmHg 53%
    14:00 +13°C° 0 mm 6 mps 665 mmHg 51%
    15:00 +13°C° 0 mm 6 mps 664 mmHg 49%
    16:00 +13°C° 0 mm 5 mps 664 mmHg 53%
    17:00 +12°C° 0 mm 4 mps 664 mmHg 57%
    18:00 +11°C° 0 mm 4 mps 664 mmHg 61%
    19:00 +10°C° 0 mm 3 mps 665 mmHg 66%
    20:00 +9°C° 0 mm 3 mps 665 mmHg 70%
    21:00 +9°C° 0 mm 3 mps 665 mmHg 75%
    22:00 +8°C° 0 mm 2 mps 665 mmHg 79%
    23:00 +7°C° 0 mm 2 mps 665 mmHg 82%

    26 February, Sunday

    Time Temperature Precipitation Wind Pressure Humidity
    00:00 +7°C° 0 mm 2 mps 665 mmHg 85%
    01:00 +6°C° 0 mm 2 mps 665 mmHg 87%
    02:00 +6°C° 0 mm 2 mps 665 mmHg 89%
    03:00 +5°C° 0 mm 3 mps 665 mmHg 91%
    04:00 +5°C° 0 mm 3 mps 665 mmHg 92%
    05:00 +4°C° 0 mm 3 mps 665 mmHg 93%
    06:00 +4°C° 0 mm 3 mps 665 mmHg 94%
    07:00 +5°C° 0 mm 3 mps 666 mmHg 87%
    08:00 +6°C° 0 mm 4 mps 666 mmHg 80%
    09:00 +7°C° 0 mm 4 mps 667 mmHg 72%
    10:00 +10°C° 0 mm 4 mps 667 mmHg 61%
    11:00 +11°C° 0 mm 4 mps 667 mmHg 50%
    12:00 +13°C° 0 mm 4 mps 667 mmHg 39%
    13:00 +13°C° 0 mm 4 mps 666 mmHg 36%
    14:00 +14°C° 0 mm 4 mps 666 mmHg 34%
    15:00 +14°C° 0 mm 4 mps 666 mmHg 31%
    16:00 +13°C° 0 mm 3 mps 665 mmHg 34%
    17:00 +12°C° 0 mm 3 mps 665 mmHg 37%
    18:00 +12°C° 0 mm 2 mps 665 mmHg 39%
    19:00 +10°C° 0 mm 2 mps 665 mmHg 42%
    20:00 +11°C° 0 mm 1 mps 665 mmHg 44%
    21:00 +10°C° 0 mm 1 mps 665 mmHg 46%
    22:00 +9°C° 0 mm 1 mps 665 mmHg 47%
    23:00 +8°C° 0 mm 0 mps 665 mmHg 49%

    27 February, Monday

    Time Temperature Precipitation Wind Pressure Humidity
    00:00 +7°C° 0 mm 0 mps 665 mmHg 51%
    01:00 +7°C° 0 mm 0 mps 665 mmHg 52%
    02:00 +7°C° 0 mm 1 mps 664 mmHg 52%
    03:00 +7°C° 0 mm 1 mps 664 mmHg 53%
    04:00 +7°C° 0 mm 1 mps 664 mmHg 55%
    05:00 +7°C° 0 mm 1 mps 664 mmHg 57%
    06:00 +6°C° 0 mm 1 mps 664 mmHg 58%
    07:00 +8°C° 0 mm 1 mps 665 mmHg 53%
    08:00 +10°C° 0 mm 1 mps 665 mmHg 47%
    09:00 +12°C° 0 mm 2 mps 666 mmHg 42%
    10:00 +14°C° 0 mm 2 mps 666 mmHg 38%
    11:00 +15°C° 0 mm 2 mps 666 mmHg 35%
    12:00 +16°C° 0 mm 3 mps 666 mmHg 32%
    13:00 +17°C° 0 mm 3 mps 666 mmHg 30%
    14:00 +17°C° 0 mm 2 mps 665 mmHg 28%
    15:00 +18°C° 0 mm 2 mps 665 mmHg 27%
    16:00 +17°C° 0 mm 2 mps 664 mmHg 30%
    17:00 +15°C° 0 mm 2 mps 664 mmHg 34%
    18:00 +14°C° 0 mm 2 mps 664 mmHg 37%
    19:00 +14°C° 0 mm 2 mps 664 mmHg 40%
    20:00 +13°C° 0 mm 2 mps 664 mmHg 42%
    21:00 +12°C° 0 mm 2 mps 664 mmHg 44%
    22:00 +10°C° 0 mm 2 mps 664 mmHg 46%
    23:00 +10°C° 0 mm 2 mps 664 mmHg 48%
    Show more